Date,TemperatureHighF,TemperatureAvgF,TemperatureLowF,DewpointHighF,DewpointAvgF,DewpointLowF,HumidityHigh,HumidityAvg,HumidityLow,PressureMaxIn,PressureMinIn,WindSpeedMaxMPH,WindSpeedAvgMPH,GustSpeedMaxMPH,PrecipitationSumIn
2013-7-1,84.9,70.5,58.2,66.7,60.3,56.5,95,72,45,30.04,29.95,10,0,10,0.00
2013-7-2,84.3,68.8,53.2,61.2,56.1,49.1,90,66,40,30.03,29.90,6,0,8,0.00
2013-7-3,88.0,70.1,55.2,61.3,55.8,51.8,90,63,39,29.92,29.79,7,0,8,0.00
2013-7-4,87.7,74.8,61.9,69.5,62.5,54.6,89,67,44,29.81,29.68,9,1,10,0.00
2013-7-5,87.8,78.0,68.1,70.2,65.4,61.1,80,66,53,29.72,29.61,10,1,14,0.00
2013-7-6,80.5,76.5,71.3,75.0,68.3,64.2,88,76,67,29.71,29.63,9,2,13,0.01
2013-7-7,91.0,77.5,63.9,77.5,70.7,62.4,95,81,62,29.74,29.63,10,0,10,0.57
2013-7-8,78.0,66.4,56.3,70.6,63.1,54.9,96,89,75,29.88,29.73,7,1,9,0.00
2013-7-9,80.9,72.5,67.5,74.5,68.9,62.7,95,89,75,29.81,29.58,16,2,16,0.46
2013-7-10,78.8,69.0,58.8,63.6,60.1,56.4,93,75,52,29.89,29.75,10,1,12,0.00
2013-7-11,86.3,71.7,58.7,66.6,62.1,57.3,95,74,49,29.96,29.80,11,1,11,0.00
2013-7-12,86.3,76.9,68.2,69.6,64.8,60.2,77,67,53,29.84,29.70,16,3,20,0.00
2013-7-13,76.1,71.1,67.2,70.1,67.3,63.8,95,88,66,29.92,29.73,18,5,20,0.28
2013-7-14,82.5,74.0,69.2,72.1,67.8,65.2,90,81,63,30.03,29.90,9,1,10,0.00
2013-7-15,89.3,76.8,65.5,73.1,69.6,64.0,95,80,53,30.07,29.99,6,0,8,0.00
2013-7-16,88.4,80.8,72.7,76.1,72.8,69.9,94,77,61,30.02,29.97,9,0,10,0.00
2013-7-17,90.5,81.7,73.0,75.6,72.7,69.7,90,75,55,30.07,29.92,7,0,10,0.00
2013-7-18,91.0,82.7,76.4,75.5,73.2,72.1,87,74,55,29.92,29.52,10,2,20,0.00
2013-7-19,83.3,77.7,69.0,73.3,67.2,62.7,90,71,52,29.71,29.50,12,1,20,0.00
2013-7-20,77.8,68.8,61.6,64.6,59.3,54.8,94,73,49,29.83,29.69,10,1,14,0.00
2013-7-21,79.3,68.0,56.3,67.9,60.6,50.8,91,77,64,29.83,29.64,12,4,13,0.00
2013-7-22,86.4,72.3,65.9,73.8,65.0,54.8,95,79,56,29.68,29.48,16,2,16,0.01
2013-7-23,77.9,65.7,56.7,58.3,55.3,53.0,90,70,49,29.88,29.68,10,0,10,0.00
2013-7-24,75.7,65.9,58.4,61.6,57.6,52.8,88,75,59,29.93,29.79,7,0,8,0.00
2013-7-25,80.3,69.7,62.1,67.4,62.9,59.2,93,80,60,29.81,29.72,6,0,12,0.04
2013-7-26,65.2,59.6,51.0,61.4,55.3,46.5,95,86,72,29.95,29.73,12,2,13,0.15
2013-7-27,58.5,53.0,49.9,52.8,49.1,46.6,91,87,76,29.95,29.80,11,2,16,0.10
2013-7-28,72.4,59.3,49.8,58.6,52.2,46.5,93,78,58,29.92,29.83,9,0,11,0.00
2013-7-29,78.5,65.1,52.5,62.1,57.1,51.1,95,77,50,29.99,29.91,6,0,9,0.01
2013-7-30,69.1,64.6,60.4,64.6,61.6,58.0,95,90,83,29.97,29.90,9,1,10,0.02
2013-7-31,78.6,68.0,60.2,65.4,59.6,53.1,95,77,47,29.91,29.81,13,1,18,0.00